When you browse on this site, cookies collect data to enhance your experience and personalize the content and advertising you see.
Visit our Privacy Policy to learn more. By continuing to use the site, you agree to this use of cookies and data.
  • In Switzerland
  • List of Countries
  • For 7 days
  • Water Temperature
  • Satellite Maps
  • Weather Map
  • Weather Widgets
  • user-avatar
    Login

    Hourly Weather Yanliang

    Today, 24 May, Friday

    Time Temperature Precipitation Wind Pressure Humidity
    00:00 +26°C° 0 mm 1 mps 721 mmHg 42%
    01:00 +25°C° 0 mm 1 mps 721 mmHg 44%
    02:00 +25°C° 0 mm 1 mps 721 mmHg 45%
    03:00 +24°C° 0 mm 1 mps 720 mmHg 47%
    04:00 +24°C° 0 mm 1 mps 720 mmHg 48%
    05:00 +25°C° 0 mm 1 mps 720 mmHg 46%
    06:00 +26°C° 0 mm 1 mps 720 mmHg 43%
    07:00 +28°C° 0 mm 1 mps 721 mmHg 40%
    08:00 +30°C° 0 mm 1 mps 721 mmHg 36%
    09:00 +32°C° 0 mm 1 mps 721 mmHg 32%
    10:00 +34°C° 0 mm 1 mps 721 mmHg 29%
    11:00 +35°C° 0 mm 1 mps 720 mmHg 26%
    12:00 +36°C° 0 mm 1 mps 720 mmHg 24%
    13:00 +39°C° 0 mm 2 mps 719 mmHg 21%
    14:00 +39°C° 0 mm 1 mps 719 mmHg 20%
    15:00 +39°C° 0 mm 1 mps 718 mmHg 19%
    16:00 +39°C° 0 mm 1 mps 718 mmHg 18%
    17:00 +36°C° 0 mm 1 mps 718 mmHg 20%
    18:00 +34°C° 0 mm 1 mps 718 mmHg 22%
    19:00 +32°C° 0 mm 1 mps 718 mmHg 24%
    20:00 +31°C° 0 mm 1 mps 718 mmHg 30%
    21:00 +30°C° 0 mm 1 mps 719 mmHg 36%
    22:00 +28°C° 0 mm 1 mps 719 mmHg 42%
    23:00 +28°C° 0 mm 1 mps 719 mmHg 44%

    Tomorrow, 25 May, Saturday

    Time Temperature Precipitation Wind Pressure Humidity
    00:00 +27°C° 0 mm 1 mps 719 mmHg 46%
    01:00 +26°C° 0 mm 1 mps 719 mmHg 48%
    02:00 +26°C° 0 mm 1 mps 719 mmHg 50%
    03:00 +25°C° 0 mm 1 mps 719 mmHg 53%
    04:00 +25°C° 0 mm 1 mps 719 mmHg 55%
    05:00 +26°C° 0 mm 1 mps 719 mmHg 51%
    06:00 +28°C° 0 mm 1 mps 719 mmHg 48%
    07:00 +29°C° 0 mm 1 mps 720 mmHg 45%
    08:00 +32°C° 0 mm 1 mps 720 mmHg 39%
    09:00 +34°C° 0 mm 1 mps 720 mmHg 34%
    10:00 +36°C° 0 mm 1 mps 720 mmHg 29%
    11:00 +38°C° 0 mm 2 mps 719 mmHg 26%
    12:00 +39°C° 0 mm 2 mps 718 mmHg 22%
    13:00 +42°C° 0 mm 3 mps 718 mmHg 18%
    14:00 +42°C° 0 mm 3 mps 717 mmHg 17%
    15:00 +42°C° 0 mm 3 mps 717 mmHg 16%
    16:00 +42°C° 0 mm 4 mps 717 mmHg 16%
    17:00 +39°C° 0 mm 3 mps 717 mmHg 19%
    18:00 +37°C° 0 mm 3 mps 717 mmHg 23%
    19:00 +35°C° 0 mm 3 mps 717 mmHg 26%
    20:00 +32°C° 0 mm 2 mps 718 mmHg 30%
    21:00 +31°C° 0 mm 2 mps 718 mmHg 34%
    22:00 +30°C° 0 mm 1 mps 719 mmHg 39%
    23:00 +29°C° 0 mm 2 mps 719 mmHg 40%

    Day after tomorrow, 26 May, Sunday

    Time Temperature Precipitation Wind Pressure Humidity
    00:00 +29°C° 0 mm 2 mps 719 mmHg 42%
    01:00 +28°C° 0 mm 2 mps 719 mmHg 43%
    02:00 +28°C° 0.1 mm 3 mps 720 mmHg 37%
    03:00 +28°C° 0.1 mm 4 mps 721 mmHg 32%
    04:00 +27°C° 0.1 mm 5 mps 722 mmHg 26%
    05:00 +27°C° 0 mm 5 mps 723 mmHg 26%
    06:00 +28°C° 0 mm 4 mps 724 mmHg 27%
    07:00 +28°C° 0 mm 4 mps 725 mmHg 28%
    08:00 +29°C° 0 mm 4 mps 725 mmHg 25%
    09:00 +30°C° 0 mm 4 mps 726 mmHg 22%
    10:00 +32°C° 0 mm 4 mps 727 mmHg 19%
    11:00 +32°C° 0 mm 5 mps 726 mmHg 18%
    12:00 +32°C° 0 mm 6 mps 726 mmHg 17%
    13:00 +33°C° 0 mm 7 mps 726 mmHg 16%
    14:00 +33°C° 0 mm 7 mps 726 mmHg 15%
    15:00 +33°C° 0 mm 6 mps 726 mmHg 14%
    16:00 +33°C° 0 mm 6 mps 726 mmHg 13%
    17:00 +32°C° 0 mm 5 mps 726 mmHg 15%
    18:00 +29°C° 0 mm 4 mps 727 mmHg 16%
    19:00 +28°C° 0 mm 4 mps 727 mmHg 18%
    20:00 +26°C° 0 mm 3 mps 728 mmHg 19%
    21:00 +25°C° 0 mm 3 mps 729 mmHg 19%
    22:00 +23°C° 0 mm 2 mps 729 mmHg 20%
    23:00 +21°C° 0 mm 2 mps 729 mmHg 21%

    27 May, Monday

    Time Temperature Precipitation Wind Pressure Humidity
    00:00 +20°C° 0 mm 2 mps 730 mmHg 23%
    01:00 +19°C° 0 mm 2 mps 730 mmHg 24%
    02:00 +18°C° 0 mm 2 mps 730 mmHg 25%
    03:00 +17°C° 0 mm 2 mps 730 mmHg 26%
    04:00 +18°C° 0 mm 1 mps 730 mmHg 27%
    05:00 +18°C° 0 mm 2 mps 731 mmHg 24%
    06:00 +20°C° 0 mm 2 mps 731 mmHg 22%
    07:00 +23°C° 0 mm 2 mps 732 mmHg 19%
    08:00 +24°C° 0 mm 2 mps 732 mmHg 17%
    09:00 +26°C° 0 mm 3 mps 732 mmHg 15%
    10:00 +27°C° 0 mm 4 mps 731 mmHg 13%
    11:00 +28°C° 0 mm 4 mps 731 mmHg 11%
    12:00 +30°C° 0 mm 4 mps 730 mmHg 10%
    13:00 +32°C° 0 mm 4 mps 729 mmHg 8%
    14:00 +32°C° 0 mm 4 mps 728 mmHg 8%
    15:00 +32°C° 0 mm 4 mps 728 mmHg 8%
    16:00 +33°C° 0 mm 4 mps 728 mmHg 7%
    17:00 +30°C° 0 mm 4 mps 728 mmHg 9%
    18:00 +29°C° 0 mm 4 mps 728 mmHg 10%
    19:00 +27°C° 0 mm 3 mps 728 mmHg 11%
    20:00 +26°C° 0 mm 3 mps 728 mmHg 14%
    21:00 +26°C° 0 mm 3 mps 728 mmHg 17%
    22:00 +25°C° 0 mm 3 mps 729 mmHg 20%
    23:00 +25°C° 0 mm 3 mps 728 mmHg 22%

    28 May, Tuesday

    Time Temperature Precipitation Wind Pressure Humidity
    00:00 +25°C° 0 mm 3 mps 728 mmHg 25%
    01:00 +24°C° 0 mm 3 mps 728 mmHg 27%
    02:00 +24°C° 0 mm 3 mps 728 mmHg 27%
    03:00 +22°C° 0 mm 3 mps 728 mmHg 28%
    04:00 +22°C° 0 mm 3 mps 728 mmHg 29%
    05:00 +24°C° 0 mm 3 mps 728 mmHg 28%
    06:00 +24°C° 0 mm 3 mps 729 mmHg 26%
    07:00 +25°C° 0 mm 3 mps 729 mmHg 25%
    08:00 +25°C° 0 mm 3 mps 730 mmHg 27%
    09:00 +25°C° 0 mm 3 mps 730 mmHg 28%
    10:00 +25°C° 0 mm 3 mps 730 mmHg 30%
    11:00 +24°C° 0.3 mm 3 mps 730 mmHg 35%
    12:00 +23°C° 0.3 mm 2 mps 729 mmHg 40%
    13:00 +21°C° 0.3 mm 2 mps 729 mmHg 44%
    14:00 +23°C° 0.1 mm 2 mps 729 mmHg 43%
    15:00 +23°C° 0.1 mm 2 mps 728 mmHg 41%
    16:00 +23°C° 0.1 mm 2 mps 728 mmHg 40%
    17:00 +21°C° 0 mm 2 mps 728 mmHg 41%
    18:00 +22°C° 0 mm 1 mps 728 mmHg 42%
    19:00 +21°C° 0 mm 1 mps 727 mmHg 43%
    20:00 +20°C° 0 mm 1 mps 727 mmHg 45%
    21:00 +19°C° 0 mm 1 mps 727 mmHg 48%
    22:00 +18°C° 0 mm 1 mps 727 mmHg 51%
    23:00 +18°C° 0 mm 1 mps 727 mmHg 52%

    29 May, Wednesday

    Time Temperature Precipitation Wind Pressure Humidity
    00:00 +16°C° 0 mm 1 mps 726 mmHg 52%
    01:00 +16°C° 0 mm 1 mps 726 mmHg 53%
    02:00 +16°C° 0 mm 1 mps 726 mmHg 54%
    03:00 +16°C° 0 mm 1 mps 725 mmHg 55%
    04:00 +15°C° 0 mm 1 mps 725 mmHg 56%
    05:00 +18°C° 0 mm 1 mps 725 mmHg 52%
    06:00 +19°C° 0 mm 1 mps 725 mmHg 47%
    07:00 +19°C° 0 mm 0 mps 726 mmHg 43%
    08:00 +23°C° 0 mm 1 mps 725 mmHg 39%
    09:00 +25°C° 0 mm 1 mps 725 mmHg 36%
    10:00 +27°C° 0 mm 2 mps 724 mmHg 32%
    11:00 +28°C° 0 mm 2 mps 724 mmHg 31%
    12:00 +29°C° 0 mm 2 mps 723 mmHg 29%
    13:00 +30°C° 0 mm 2 mps 722 mmHg 28%
    14:00 +31°C° 0 mm 2 mps 722 mmHg 27%
    15:00 +31°C° 0 mm 1 mps 722 mmHg 27%
    16:00 +32°C° 0 mm 1 mps 722 mmHg 26%
    17:00 +31°C° 0 mm 1 mps 722 mmHg 29%
    18:00 +29°C° 0 mm 1 mps 722 mmHg 31%
    19:00 +28°C° 0 mm 2 mps 722 mmHg 33%
    20:00 +27°C° 0 mm 2 mps 722 mmHg 34%
    21:00 +26°C° 0 mm 2 mps 723 mmHg 36%
    22:00 +25°C° 0 mm 2 mps 723 mmHg 37%
    23:00 +24°C° 0 mm 2 mps 723 mmHg 39%
    Show more